Location: Breitenfeld
(46.8500°N, 15.6333°E)
Time: 00:14:41
(UTC+00:00)

Transit 4B - Pass Details

Date: 06 June 2022
Orbit: 948 x 1097 km, 32.4° (Epoch: 03 July)

Event Time Altitude Azimuth Distance (km) Brightness Sun altitude
Exits shadow 01:51:12 12° 228° (SW) 2,635 10.1 -10.1°
Maximum altitude 01:54:04 16° 200° (SSW) 2,377 10.0 -9.8°
Drops below altitude 10° 01:57:49 10° 166° (SSE) 2,744 10.5 -9.3°
Sets 02:01:34 0° 145° (SE) 3,662 11.4 -8.9°
